Location: Grand Rapids
(42.9630°N, 85.6680°W)
Time: 01:16:36
(UTC-04:00)

S-56A Canister/Altair - Pass Details

Date: 07 June 2024
Orbit: 637 x 2489 km, 38.9° (Epoch: 21 June)

Event Time Altitude Azimuth Distance (km) Brightness Sun altitude
Rises 10:22:32 0° 283° (WNW) 5,889 11.6 44.4°
Reaches altitude 10° 10:28:21 10° 268° (W) 4,597 11.2 45.5°
Maximum altitude 10:35:24 18° 233° (SW) 3,556 10.8 46.7°
Drops below altitude 10° 10:41:15 10° 195° (SSW) 3,681 11.1 47.8°
Sets 10:45:12 0° 177° (S) 4,319 11.5 48.5°
